W1LH-4 Weather Reports


time (UTC)temp
C
wind
direction
speed
KPH
gust
KPH
rain 1hr
cm
rain 24hr
cm
rain mn
cm
humidity
%
barometer
mb
20260508121847 7 327 11.3 25.7 0.00 0.05 0.00 73 1005.1
20260508120351 7 304 12.9 24.1 0.00 0.05 0.00 74 1005.0
20260508114859 7 329 12.9 20.9 0.00 0.05 0.00 74 1005.0
20260508113402 6 9 8.0 19.3 0.00 0.05 0.00 75 1004.9
20260508111900 6 306 11.3 20.9 0.00 0.05 0.00 76 1004.6
20260508110346 6 322 6.4 17.7 0.00 0.05 0.05 76 1004.5
20260508104850 5 350 11.3 17.7 0.00 0.05 0.05 76 1004.4
20260508103353 5 333 9.7 17.7 0.00 0.05 0.05 76 1004.3
20260508101857 5 310 8.0 17.7 0.00 0.05 0.05 76 1004.4
20260508100349 4 296 9.7 17.7 0.00 0.05 0.05 76 1004.3
20260508094853 4 283 6.4 14.5 0.00 0.05 0.05 77 1004.3
20260508093357 3 325 6.4 17.7 0.00 0.05 0.05 76 1004.1
20260508091845 3 311 9.7 17.7 0.00 0.05 0.05 76 1004.0
20260508090349 3 295 6.4 14.5 0.00 0.05 0.05 74 1004.1
20260508084852 4 317 8.0 17.7 0.00 0.05 0.05 73 1003.9
20260508083400 5 319 6.4 12.9 0.00 0.05 0.05 73 1003.8
20260508081842 5 335 6.4 14.5 0.00 0.05 0.05 73 1003.7
20260508080346 5 338 6.4 16.1 0.00 0.25 0.05 71 1003.8
20260508074854 5 317 9.7 14.5 0.00 0.25 0.05 71 1003.8
20260508073357 5 336 8.0 12.9 0.00 0.25 0.05 70 1003.9
20260508071901 5 310 8.0 16.1 0.00 0.25 0.05 69 1004.0
20260508070346 5 294 8.0 16.1 0.00 0.51 0.05 69 1003.6
20260508064851 5 327 4.8 16.1 0.00 0.51 0.05 69 1003.8
20260508063354 5 335 8.0 19.3 0.00 0.51 0.05 69 1004.0
20260508061841 5 342 8.0 16.1 0.00 0.51 0.05 69 1003.9
20260508060406 5 347 6.4 17.7 0.00 0.56 0.05 68 1004.1
20260508054848 5 327 8.0 17.7 0.00 0.56 0.05 68 1004.2
20260508053356 6 300 6.4 17.7 0.00 0.56 0.05 68 1004.3
20260508051901 6 294 8.0 12.9 0.00 0.56 0.05 69 1004.5
20260508050345 6 319 6.4 12.9 0.00 0.58 0.05 68 1004.6
20260508044854 6 315 8.0 17.7 0.00 0.58 0.05 68 1004.8
20260508043357 6 316 6.4 12.9 0.00 0.58 0.05 69 1004.9
20260508041841 6 306 4.8 12.9 0.00 0.58 0.05 69 1004.7
20260508040348 7 327 6.4 14.5 0.00 0.76 0.05 69 1004.9
20260508034853 7 297 6.4 14.5 0.00 0.76 0.05 66 1004.7
20260508033358 7 315 9.7 17.7 0.00 0.76 0.05 65 1004.5
20260508031846 8 323 6.4 17.7 0.00 0.76 0.05 63 1004.7
20260508030348 8 323 8.0 19.3 0.00 0.94 0.05 62 1004.6
20260508024852 8 311 6.4 14.5 0.00 0.94 0.05 61 1004.6
20260508023359 8 330 8.0 20.9 0.00 0.94 0.05 61 1004.6
20260508021843 8 302 9.7 17.7 0.00 0.94 0.05 68 1004.6
20260508020348 8 296 8.0 16.1 0.03 0.99 0.05 75 1004.8
20260508014854 9 303 8.0 20.9 0.03 0.99 0.05 70 1004.8
20260508013358 8 327 6.4 16.1 0.03 0.99 0.05 60 1004.7
20260508011901 8 336 8.0 19.3 0.03 0.99 0.05 63 1004.4
20260508010348 9 335 16.1 33.8 0.00 0.97 0.03 74 1004.5
20260508004851 11 13 9.7 17.7 0.00 0.97 0.03 74 1004.2
20260508003350 11 319 4.8 9.7 0.00 0.97 0.03 73 1003.9
20260508001854 11 269 3.2 9.7 0.00 0.97 0.03 72 1003.7
20260508000404 11 271 6.4 11.3 0.00 0.97 0.03 71 1003.6
20260507234844 11 290 4.8 12.9 0.00 0.97 0.03 69 1003.5
20260507233347 12 275 1.6 12.9 0.00 0.97 0.03 67 1003.3
20260507231855 12 279 4.8 16.1 0.00 0.97 0.03 64 1002.9
20260507230359 12 327 8.0 17.7 0.00 0.97 0.03 65 1002.4
20260507224900 12 315 12.9 24.1 0.00 0.97 0.03 63 1002.3
20260507223348 13 325 6.4 12.9 0.00 0.97 0.03 70 1002.4
20260507221912 13 229 4.8 8.0 0.00 0.97 0.03 69 1002.2
20260507220353 13 225 4.8 11.3 0.00 0.97 0.03 68 1002.1
20260507214900 13 211 4.8 14.5 0.00 0.97 0.03 67 1002.0
20260507213422 13 219 9.7 19.3 0.00 0.97 0.03 65 1002.0
20260507211844 15 236 9.7 17.7 0.00 0.97 0.03 61 1001.9
20260507210346 15 221 9.7 17.7 0.00 0.97 0.03 60 1001.9
20260507204853 16 271 9.7 20.9 0.00 0.97 0.03 46 1001.7
20260507203356 16 229 6.4 19.3 0.00 0.97 0.03 42 1001.6
20260507201900 16 24 8.0 14.5 0.00 0.97 0.03 43 1001.5
20260507200346 16 348 9.7 17.7 0.00 0.97 0.03 42 1001.5
20260507194849 15 323 8.0 19.3 0.00 0.97 0.03 45 1001.5
20260507193411 16 28 9.7 24.1 0.00 0.97 0.03 40 1001.7
20260507191838 16 25 526.3 526.3 0.00 0.00 0.03 40 1001.9
20260507190343 15 28 11.3 24.1 0.00 0.97 0.03 45 1001.9
20260507184846 15 46 12.9 24.1 0.00 0.97 0.03 45 1002.1
20260507183409 15 360 9.7 24.1 0.00 0.97 0.03 50 1002.3
20260507181855 15 355 9.7 25.7 0.00 0.97 0.03 53 1002.4
20260507180358 14 334 14.5 25.7 0.00 0.97 0.03 52 1002.4
20260507174842 14 355 12.9 22.5 0.00 0.97 0.03 56 1002.3
20260507173348 14 355 11.3 27.4 0.03 0.97 0.03 57 1002.4
20260507171852 14 360 14.5 24.1 0.03 0.97 0.03 57 1002.6
20260507170353 13 330 16.1 19.3 0.03 0.97 0.03 59 1002.5
20260507164900 13 355 11.3 20.9 0.03 0.97 0.03 61 1002.7
20260507163345 13 317 12.9 20.9 0.00 0.94 0.00 61 1002.9
20260507161847 12 329 9.7 20.9 0.00 0.94 0.00 66 1003.2
20260507160355 12 325 8.0 20.9 0.00 0.94 0.00 66 1003.4
20260507154859 12 269 11.3 19.3 0.00 0.94 0.00 71 1003.5
20260507153344 12 304 16.1 22.5 0.00 0.94 0.00 70 1003.6
20260507151849 11 5 9.7 22.5 0.00 0.94 0.00 75 1003.8
20260507150411 11 36 16.1 22.5 0.00 0.94 0.00 74 1003.8
20260507144854 11 330 11.3 17.7 0.00 0.94 0.00 71 1004.1
20260507143343 10 330 11.3 19.3 0.00 0.94 0.00 72 1004.2
20260507141906 10 344 8.0 20.9 0.00 0.94 0.00 70 1004.4
20260507140349 10 5 9.7 19.3 0.00 0.94 0.00 56 1004.7
20260507134852 10 31 11.3 24.1 0.00 0.94 0.00 49 1004.5
20260507133340 9 346 9.7 14.5 0.00 0.94 0.00 31 1004.5
20260507131845 9 309 11.3 17.7 0.00 0.94 0.00 18 1004.6
20260507130348 8 309 6.4 16.1 0.00 0.94 0.00 3 1004.4
20260507124857 8 355 8.0 16.1 0.00 0.94 0.00 1 1004.1
20260507123400 8 5 11.3 17.7 0.00 0.94 0.00 1 1004.4